This demonstration page uses our WeatherBlox Daily Observations layout. Learn more.

Hourly Observations for February 17, 2020

Temp ( °F °C ) Dew Point ( °F °C ) Humidity (%) Winds ( mph kmh ) Pressure ( in mb ) Visibility ( mi km ) Precip ( " mm )
12:15 am 00:15 Cloudy 39 4 30 -1 70 70 NNE 5 7 30.15 1021 10 16.0934 0 0
12:35 am 00:35 Cloudy 37 3 30 -1 75 75 NNE 6 9 30.15 1021 10 16.0934 0 0
12:55 am 00:55 Cloudy 37 3 30 -1 75 75 NNE 6 9 30.15 1021 10 16.0934 0 0
1:15 am 01:15 Cloudy 37 3 30 -1 75 75 NNE 6 9 30.16 1021 10 16.0934 0 0
1:35 am 01:35 Cloudy 37 3 30 -1 75 75 NNE 6 9 30.16 1021 10 16.0934 0 0
1:55 am 01:55 Cloudy 37 3 30 -1 75 75 NNE 6 9 30.16 1021 10 16.0934 0 0
2:15 am 02:15 Cloudy 37 3 30 -1 75 75 NNE 8 13 30.16 1021 10 16.0934 0 0
2:35 am 02:35 Cloudy 37 3 30 -1 75 75 NNE 7 11 30.16 1021 10 16.0934 0 0
2:55 am 02:55 Partly Cloudy 37 3 30 -1 75 75 NNE 6 9 30.16 1021 10 16.0934 0 0
3:15 am 03:15 Mostly Cloudy 37 3 30 -1 75 75 NNE 6 9 30.16 1021 10 16.0934 0 0
3:35 am 03:35 Partly Cloudy 37 3 30 -1 75 75 N 3 6 30.16 1021 10 16.0934 0 0
3:55 am 03:55 Clear 36 2 30 -1 81 81 N 7 11 30.16 1021 10 16.0934 0 0
4:15 am 04:15 Clear 37 3 32 0 81 81 N 9 15 30.17 1022 10 16.0934 0 0
4:35 am 04:35 Clear 39 4 32 0 75 75 N 9 15 30.18 1022 10 16.0934 0 0
4:55 am 04:55 Clear 37 3 32 0 81 81 N 7 11 30.18 1022 10 16.0934 0 0
5:15 am 05:15 Clear 37 3 32 0 81 81 N 6 9 30.2 1023 10 16.0934 0 0
5:35 am 05:35 Clear 37 3 32 0 81 81 NNE 3 6 30.21 1023 10 16.0934 0 0
5:55 am 05:55 Clear 37 3 32 0 81 81 NE 5 7 30.22 1023 10 16.0934 0 0
6:15 am 06:15 Clear 37 3 32 0 81 81 N 3 6 30.23 1024 10 16.0934 0 0
6:35 am 06:35 Clear 36 2 32 0 87 87 NNE 3 6 30.24 1024 10 16.0934 0 0
6:55 am 06:55 Clear 34 1 32 0 93 93 Calm 30.25 1024 10 16.0934 0 0
8:35 am 08:35 Sunny 37 3 32 0 81 81 SE 3 6 30.29 1026 10 16.0934 0 0
8:55 am 08:55 Sunny 41 5 32 0 70 70 Calm 30.29 1026 10 16.0934 0 0
9:15 am 09:15 Sunny 41 5 32 0 70 70 NNE 5 7 30.29 1026 10 16.0934 0 0
9:35 am 09:35 Sunny 43 6 32 0 66 66 NE 5 7 30.29 1026 10 16.0934 0 0
9:55 am 09:55 Sunny 43 6 32 0 66 66 NE 5 7 30.29 1026 10 16.0934 0 0
10:15 am 10:15 Sunny 45 7 32 0 61 61 NNE 8 13 30.3 1026 10 16.0934 0 0
10:35 am 10:35 Sunny 45 7 32 0 61 61 NE 7 11 30.31 1026 10 16.0934 0 0
10:55 am 10:55 Sunny 45 7 32 0 61 61 NE 3 6 30.31 1026 10 16.0934 0 0
11:15 am 11:15 Sunny 46 8 32 0 57 57 Calm 30.3 1026 10 16.0934 0 0
11:35 am 11:35 Sunny 46 8 30 -1 53 53 N 5 7 30.31 1026 10 16.0934 0 0
11:55 am 11:55 Sunny 46 8 32 0 57 57 Calm 30.3 1026 10 16.0934 0 0
12:15 pm 12:15 Sunny 48 9 32 0 54 54 NNE 5 7 30.29 1026 10 16.0934 0 0
12:35 pm 12:35 Sunny 50 10 32 0 50 50 NNE 6 9 30.29 1026 10 16.0934 0 0
12:55 pm 12:55 Sunny 50 10 30 -1 47 47 NE 6 9 30.29 1026 10 16.0934 0 0
1:15 pm 13:15 Sunny 50 10 28 -2 43 43 NE 3 6 30.28 1025 10 16.0934 0 0
1:35 pm 13:35 Sunny 50 10 30 -1 47 47 Calm 30.27 1025 10 16.0934 0 0
1:55 pm 13:55 Sunny 52 11 30 -1 44 44 NE 6 9 30.26 1025 10 16.0934 0 0
2:15 pm 14:15 Sunny 52 11 28 -2 41 41 N 5 7 30.26 1025 10 16.0934 0 0
2:35 pm 14:35 Sunny 52 11 28 -2 41 41 Calm 30.25 1025 10 16.0934 0 0
2:55 pm 14:55 Sunny 52 11 30 -1 44 44 Calm 30.24 1024 10 16.0934 0 0
3:15 pm 15:15 Sunny 52 11 28 -2 41 41 SE 5 7 30.24 1024 10 16.0934 0 0
3:35 pm 15:35 Sunny 52 11 28 -2 41 41 SSE 3 6 30.23 1024 10 16.0934 0 0
3:55 pm 15:55 Sunny 52 11 28 -2 41 41 E 5 7 30.23 1024 10 16.0934 0 0
4:15 pm 16:15 Sunny 52 11 27 -3 38 38 Calm 30.23 1024 10 16.0934 0 0
4:35 pm 16:35 Sunny 52 11 27 -3 38 38 SSE 6 9 30.23 1024 10 16.0934 0 0
4:55 pm 16:55 Sunny 52 11 28 -2 41 41 Calm 30.24 1024 10 16.0934 0 0
5:15 pm 17:15 Sunny 52 11 28 -2 41 41 NE 3 6 30.24 1024 10 16.0934 0 0
5:35 pm 17:35 Sunny 52 11 28 -2 41 41 Calm 30.25 1025 10 16.0934 0 0
5:55 pm 17:55 Clear 50 10 27 -3 40 40 SE 3 6 30.26 1025 10 16.0934 0 0
6:15 pm 18:15 Clear 50 10 27 -3 40 40 ESE 6 9 30.27 1025 10 16.0934 0 0
6:35 pm 18:35 Clear 48 9 28 -2 46 46 SE 6 9 30.27 1025 10 16.0934 0 0
6:55 pm 18:55 Clear 48 9 27 -3 43 43 SSE 7 11 30.27 1025 10 16.0934 0 0
7:15 pm 19:15 Clear 48 9 27 -3 43 43 SE 7 11 30.28 1025 10 16.0934 0 0
7:35 pm 19:35 Partly Cloudy 46 8 27 -3 46 46 SE 8 13 30.29 1026 10 16.0934 0 0
7:55 pm 19:55 Partly Cloudy 46 8 27 -3 46 46 SE 7 11 30.29 1026 10 16.0934 0 0
8:15 pm 20:15 Partly Cloudy 46 8 27 -3 46 46 SSE 7 11 30.3 1026 10 16.0934 0 0
8:35 pm 20:35 Partly Cloudy 46 8 25 -4 43 43 SSE 6 9 30.3 1026 10 16.0934 0 0
8:55 pm 20:55 Mostly Cloudy 46 8 23 -5 40 40 S 6 9 30.3 1026 10 16.0934 0 0
9:15 pm 21:15 Mostly Cloudy 45 7 23 -5 42 42 SSE 7 11 30.3 1026 10 16.0934 0 0
9:35 pm 21:35 Partly Cloudy 45 7 23 -5 42 42 SSE 3 6 30.3 1026 10 16.0934 0 0
9:55 pm 21:55 Partly Cloudy 43 6 25 -4 49 49 S 5 7 30.3 1026 10 16.0934 0 0
10:15 pm 22:15 Clear 43 6 25 -4 49 49 S 7 11 30.3 1026 10 16.0934 0 0
10:35 pm 22:35 Mostly Cloudy 43 6 23 -5 46 46 S 7 11 30.3 1026 10 16.0934 0 0
10:55 pm 22:55 Mostly Cloudy 45 7 25 -4 46 46 SSE 8 13 30.29 1026 10 16.0934 0 0
11:15 pm 23:15 Partly Cloudy 45 7 27 -3 49 49 SSE 8 13 30.28 1025 10 16.0934 0 0
11:35 pm 23:35 Partly Cloudy 43 6 27 -3 53 53 SE 6 9 30.28 1025 10 16.0934 0 0
11:55 pm 23:55 Partly Cloudy 43 6 27 -3 53 53 SSE 6 9 30.27 1025 10 16.0934 0 0

Powered by AerisWeather